STARLINK-35252

Last updated on Mon Oct 20 2025 00:02:07 GMT+0000 (Coordinated Universal Time)

1 65850U 25221AD 25292.25002315 -.01567767 00000+0 -28822-1 0 9997 2 65850 53.1599 27.7564 0000902 91.5966 281.2158 15.51587085 4439
UTC large
Height (km)
Speed (km/s)
/
Latitude / Longitude
Inclination (degrees)
Orbital Period (minutes)
Azimuth
Elevation
Range (km)
Doppler Factor

Next 0 passes for location: London (51.5072 / 0.1276)

Sorry there are no passes over London.